Flag for U.S.A. Weather past 2 weeks in Portland, Maine, U.S.A.

Now
28 °F

Passing clouds.


Feels Like: 19 °F
Forecast: 28 / 36 °F
Wind: 9 mph from Northeast

Location: Portland - Portland International Jetport

Current Time: Dec 20, 2014 at 7:42:10 PM

Latest Report: Dec 20, 2014 at 6:51 PM


Visibility: 10 mi

Pressure: 30.36 "Hg

Humidity: 75%

Dew point: 21 °F

Location of PortlandLocation

Historic Weather in Portland — Graph

°F

Portland temperature yesterday

Maximum temperature yesterday: 39 °F (at 1:51 PM)
Minimum temperature yesterday: 27 °F (at 4:51 AM)
Average temperature yesterday: 33 °F

Past Weeks' High & Low Weather Summary

 TemperatureHumidityPressure
High46 °F (Dec 14, 1:51 PM)97% (Dec 11, 12:00 AM)30.85 "Hg (Dec 11, 12:00 AM)
Low11 °F (Dec 8, 4:51 AM)28% (Dec 7, 11:51 AM)29.45 "Hg (Dec 11, 12:00 AM)
Average33 °F78%30.01 "Hg
* Reported Dec 5 5:51 PM — Dec 20 5:51 PM, Portland, Weather by CustomWeather, © 2014

Note: Actual official high and low records may vary slightly from our data, if they occured in-between our weather recording intervals... More about our weather records

Advertising

Portland weather history for previous 24 hours

 ConditionsComfort  
Time TempWeatherWind HumidityBarometerVisibility
5:51 PM
Dec 20
30 °FPassing clouds.8 mph72%30.34 "Hg10 mi
4:51 PM30 °FPassing clouds.No wind72%30.32 "Hg10 mi
3:51 PM31 °FSunny.3 mph67%30.31 "Hg10 mi
2:51 PM33 °FPassing clouds.No wind61%30.31 "Hg10 mi
1:51 PM33 °FPassing clouds.6 mph61%30.30 "Hg10 mi
12:51 PM33 °FPassing clouds.3 mph61%30.30 "Hg10 mi
11:51 AM32 °FPassing clouds.7 mph66%30.30 "Hg10 mi
10:51 AM30 °FPartly sunny.9 mph69%30.33 "Hg10 mi
9:51 AM28 °FPartly sunny.10 mph69%30.34 "Hg10 mi
8:51 AM27 °FPartly sunny.9 mph66%30.33 "Hg10 mi
7:51 AM25 °FPassing clouds.9 mph69%30.30 "Hg10 mi
6:51 AM25 °FClear.12 mph69%30.27 "Hg10 mi
5:51 AM26 °FClear.10 mph66%30.25 "Hg10 mi
4:51 AM26 °FClear.8 mph69%30.23 "Hg10 mi
3:51 AM25 °FClear.7 mph72%30.21 "Hg10 mi
2:51 AM25 °FClear.3 mph72%30.22 "Hg10 mi
1:51 AM28 °FClear.No wind69%30.19 "Hg10 mi
12:51 AM27 °FClear.No wind69%30.17 "Hg10 mi
11:51 PM
Dec 19
27 °FClear.5 mph72%30.15 "Hg10 mi
10:51 PM30 °FClear.9 mph64%30.15 "Hg10 mi
9:51 PM30 °FClear.7 mph66%30.12 "Hg10 mi
8:51 PM30 °FClear.8 mph69%30.10 "Hg10 mi
7:51 PM30 °FClear.9 mph69%30.08 "Hg10 mi
Weather by CustomWeather, © 2014

See weather overviewHow to use our weather pages